This is the latest recevied weather packets stored in our database for station/object N4ASP-13. If no packets are shown the sender has not sent any weather packets the latest 10 day(s).
| Time | Temp. | Humidity | Pressure | Rain* | Wind** | Luminosity | Snow |
|---|---|---|---|---|---|---|---|
| 1778258554 | 17.78° C | 46% | 1017.1 hPa | 0 mm | - | 1113 W/m² | - |
| 1778258488 | 17.78° C | 44% | 1017.2 hPa | 0 mm | - | 1114 W/m² | - |
| 1778258427 | 17.78° C | 47% | 1017.1 hPa | 0 mm | - | 1106 W/m² | - |
| 1778258369 | 17.22° C | 46% | 1017.1 hPa | 0 mm | - | 1107 W/m² | - |
| 1778258308 | 17.22° C | 48% | 1017.1 hPa | 0 mm | - | 1106 W/m² | - |
| 1778258249 | 17.22° C | 49% | 1017.1 hPa | 0 mm | - | 1106 W/m² | - |
| 1778258183 | 17.22° C | 52% | 1017.1 hPa | 0 mm | - | 1107 W/m² | - |
| 1778258123 | 17.22° C | 47% | 1017.1 hPa | 0 mm | - | 1106 W/m² | - |
| 1778258063 | 16.67° C | 47% | 1017.1 hPa | 0 mm | - | 1102 W/m² | - |
| 1778258003 | 16.67° C | 48% | 1017.1 hPa | 0 mm | - | 1106 W/m² | - |
| 1778257942 | 16.67° C | 47% | 1017.1 hPa | 0 mm | - | 1102 W/m² | - |
| 1778257882 | 16.67° C | 47% | 1017.2 hPa | 0 mm | - | 1102 W/m² | - |
| 1778257822 | 16.67° C | 46% | 1017.3 hPa | 0 mm | - | 1102 W/m² | - |
| 1778257759 | 16.67° C | 45% | 1017.3 hPa | 0 mm | - | 1104 W/m² | - |
| 1778257700 | 16.67° C | 45% | 1017.3 hPa | 0 mm | - | 1100 W/m² | - |
| 1778257639 | 16.67° C | 44% | 1017.2 hPa | 0 mm | - | 1097 W/m² | - |
| 1778257578 | 16.67° C | 46% | 1017.4 hPa | 0 mm | - | 1095 W/m² | - |
| 1778257515 | 16.67° C | 46% | 1017.3 hPa | 0 mm | - | 1095 W/m² | - |
| 1778257456 | 16.67° C | 47% | 1017.4 hPa | 0 mm | - | 1095 W/m² | - |
| 1778257393 | 16.67° C | 47% | 1017.4 hPa | 0 mm | - | 1095 W/m² | - |
| 1778257333 | 16.67° C | 45% | 1017.4 hPa | 0 mm | - | 1093 W/m² | - |
| 1778257275 | 16.67° C | 47% | 1017.4 hPa | 0 mm | - | 1092 W/m² | - |
| 1778257214 | 16.67° C | 46% | 1017.4 hPa | 0 mm | - | 1092 W/m² | - |
| 1778257153 | 16.67° C | 46% | 1017.4 hPa | 0 mm | - | 1092 W/m² | - |
| 1778257095 | 16.67° C | 48% | 1017.6 hPa | 0 mm | - | 1090 W/m² | - |
* Rain latest hour (hover to see other rain measurements)
** Current wind speed in m/s (hover to see current wind gust speed)